Location: Limerick
(52.6800°N, 8.6400°W)
Time: 07:50:42
(UTC+01:00)

ISS - All Passes

Search period start: 29 August 2015 00:00
Search period end: 08 September 2015 00:00
Orbit: 399 x 401 km, 51.6° (Epoch: 28 August)

Date Brightness Start Highest point End Pass type
(mag) Time Alt. Az. Time Alt. Az. Time Alt. Az.
29 Aug - 12:09:37 10° SW 12:12:36 34° SSE 12:15:35 10° E daylight
29 Aug - 13:45:31 10° W 13:48:45 73° S 13:52:01 10° E daylight
29 Aug - 15:21:51 10° W 15:25:04 57° SSW 15:28:16 10° ESE daylight
29 Aug - 16:58:34 10° W 17:01:02 20° SSW 17:03:29 10° SSE daylight
30 Aug - 11:16:31 10° SSW 11:19:10 23° SSE 11:21:51 10° E daylight
30 Aug - 12:52:00 10° WSW 12:55:13 63° SSE 12:58:27 10° E daylight
30 Aug - 14:28:16 10° W 14:31:31 69° S 14:34:46 10° ESE daylight
30 Aug - 16:04:45 10° W 16:07:39 29° SSW 16:10:30 10° SE daylight
31 Aug - 10:23:45 10° S 10:25:47 16° SE 10:27:52 10° ESE daylight
31 Aug - 11:58:31 10° WSW 12:01:41 49° SSE 12:04:51 10° E daylight
31 Aug - 13:34:41 10° W 13:37:57 75° S 13:41:12 10° E daylight
31 Aug - 15:11:05 10° W 15:14:10 41° SSW 15:17:15 10° SE daylight
31 Aug - 16:48:37 10° WSW 16:49:57 12° SW 16:51:13 10° SSW daylight
01 Sep - 11:05:08 10° SW 11:08:09 36° SSE 11:11:11 10° E daylight
01 Sep - 12:41:06 10° W 12:44:20 74° S 12:47:35 10° E daylight
01 Sep - 14:17:25 10° W 14:20:37 55° SSW 14:23:48 10° ESE daylight
01 Sep - 15:54:13 10° W 15:56:34 18° SW 15:58:53 10° SSE daylight
02 Sep - 10:11:55 10° SSW 10:14:38 25° SSE 10:17:24 10° E daylight
02 Sep - 11:47:29 10° WSW 11:50:43 65° S 11:53:57 10° E daylight
02 Sep - 13:23:46 10° W 13:27:01 67° S 13:30:15 10° ESE daylight
02 Sep - 15:00:17 10° W 15:03:06 27° SSW 15:05:54 10° SSE daylight
03 Sep - 09:18:59 10° S 09:21:10 17° SE 09:23:24 10° ESE daylight
03 Sep - 10:53:55 10° WSW 10:57:05 52° SSE 11:00:16 10° E daylight
03 Sep - 12:30:07 10° W 12:33:21 75° S 12:36:37 10° E daylight
03 Sep - 14:06:30 10° W 14:09:33 38° SSW 14:12:36 10° SE daylight
03 Sep - 15:44:24 10° WSW 15:45:18 11° SW 15:46:07 10° SSW daylight
04 Sep - 08:26:50 10° SSE 08:27:43 11° SE 08:28:42 10° ESE daylight
04 Sep - 10:00:25 10° SW 10:03:28 38° SSE 10:06:32 10° E daylight
04 Sep - 11:36:25 10° W 11:39:40 75° S 11:42:56 10° E daylight
04 Sep - 13:12:46 10° W 13:15:56 52° SSW 13:19:07 10° ESE daylight
04 Sep - 14:49:38 10° WSW 14:51:51 17° SW 14:54:02 10° S daylight
05 Sep - 09:07:04 10° SSW 09:09:52 27° SSE 09:12:43 10° E daylight
05 Sep - 10:42:44 10° WSW 10:45:58 67° S 10:49:12 10° E daylight
05 Sep - 12:19:02 10° W 12:22:15 65° SSW 12:25:30 10° ESE daylight
05 Sep - 13:55:35 10° W 13:58:19 25° SSW 14:01:03 10° SSE daylight
06 Sep - 08:13:59 10° SSW 08:16:19 19° SE 08:18:41 10° E daylight
06 Sep - 09:49:04 10° WSW 09:52:15 55° SSE 09:55:27 10° E daylight
06 Sep - 11:25:17 10° W 11:28:32 74° S 11:31:47 10° E daylight
06 Sep - 13:01:41 10° W 13:04:42 36° SSW 13:07:44 10° SE daylight
07 Sep - 07:21:30 10° SSE 07:22:47 12° SE 07:24:08 10° ESE daylight
07 Sep - 08:55:28 10° SW 08:58:33 41° SSE 09:01:39 10° E daylight
07 Sep - 10:31:31 10° W 10:34:47 75° S 10:38:01 10° E daylight
07 Sep - 12:07:52 10° W 12:11:01 49° SSW 12:14:11 10° ESE daylight
07 Sep - 13:44:50 10° WSW 13:46:54 16° SW 13:48:55 10° S daylight
